📊 Raw Sensor Data

Showing records 49551 to 49575 of 85,121 total

ID Distance (ft) Battery V Battery A Int Temp (°F) Int Humid (%) Ext Temp (°F) Solar V RSSI SNR Time Stamp
35583 -- 3.96 -5 43 39 44 0.00 -82 7 03/21/2025 04:30 AM
35582 15.2 4.01 -5 43 39 44 0.00 -82 8 03/21/2025 04:15 AM
35581 15.1 3.96 -5 43 39 44 0.00 -82 7 03/21/2025 04:00 AM
35580 15.1 3.96 -5 43 39 44 0.00 -81 8 03/21/2025 03:45 AM
35579 15.1 4.02 -5 43 39 45 0.10 -81 7 03/21/2025 03:30 AM
35578 15.2 3.96 -5 43 39 45 0.00 -81 8 03/21/2025 03:15 AM
35577 15.2 3.96 -5 43 39 45 0.00 -81 8 03/21/2025 03:00 AM
35576 15.2 3.97 -5 43 40 45 0.00 -80 7 03/21/2025 02:45 AM
35575 15.1 4.02 -5 43 40 46 0.00 -81 8 03/21/2025 02:30 AM
35574 15.3 3.97 -5 43 40 44 0.00 -81 9 03/21/2025 02:15 AM
35573 -- 4.02 -5 44 40 46 0.00 -80 8 03/21/2025 02:00 AM
35572 15.1 3.97 -5 44 40 45 0.00 -80 8 03/21/2025 01:45 AM
35571 15.2 3.97 -5 44 40 45 0.00 -80 6 03/21/2025 01:30 AM
35570 -- 4.02 -5 45 41 45 0.10 -81 7 03/21/2025 01:15 AM
35569 -- 3.97 -5 46 40 47 0.00 -81 7 03/21/2025 01:00 AM
35568 -- 3.97 -5 47 41 48 0.00 -82 7 03/21/2025 12:30 AM
35567 -- 3.97 -5 47 41 47 0.00 -83 8 03/21/2025 12:15 AM
35566 15.1 3.98 -5 48 41 48 0.00 -82 8 03/21/2025 12:00 AM
35565 15.1 3.98 -5 49 41 50 0.00 -81 7 03/20/2025 11:45 PM
35564 -- 3.98 -5 51 40 51 0.00 -81 7 03/20/2025 11:31 PM
35563 15.1 3.98 -5 51 40 52 0.00 -81 7 03/20/2025 11:15 PM
35562 15.1 4.03 -5 51 40 52 0.10 -82 8 03/20/2025 11:00 PM
35561 15.1 3.98 -5 52 40 52 0.10 -81 7 03/20/2025 10:45 PM
35560 15.0 3.98 -5 52 40 53 0.00 -82 8 03/20/2025 10:30 PM
35559 15.1 3.98 -5 52 40 52 0.10 -81 7 03/20/2025 10:15 PM